SCP
0 0 0 0 0 0 0 0 0 -0 0 0 1 1 1 1 0 0 0 1 1 0 1 0 0 0 0 0 0 0 0 0 0 0 0 0 0 0 0 0 0 0 0
0 1 1 1 1 0 0 0 -0 -0 0 1 1 1 1 1 0 0 0 0 1 1 1 0 0 0 0 0 0 0 0 0 0 0 0 0 0 0 0 0 0 0 0
-0 1 2 2 2 1 0 0 0 -0 0 0 2 1 1 0 0 0 0 0 0 0 0 0 0 0 0 0 0 0 0 0 0 0 0 0 0 0 0 0 0 0 0
0 -0 1 1 2 1 1 0 0 0 0 0 1 1 1 1 1 0 0 0 0 0 0 0 0 0 0 0 0 0 0 0 0 0 0 0 0 0 0 0 0 0 0
0 -0 0 1 2 2 2 1 1 1 1 1 1 2 2 2 1 0 0 0 0 0 0 0 0 0 0 0 0 0 0 0 0 0 0 0 0 0 0 0 0 0 0
0 1 1 2 2 2 3 3 3 2 2 2 2 2 1 1 0 0 0 0 0 0 0 0 0 0 0 0 0 0 0 0 0 0 0 0 0 0 0 0 0 0 0
1 1 2 2 3 3 3 4 3 3 2 2 2 1 1 0 0 0 0 0 0 0 0 0 0 0 0 0 0 0 0 0 0 0 0 0 0 0 0 0 0 0 0
1 1 1 2 3 3 2 3 2 2 2 2 2 1 0 0 0 0 0 0 0 0 0 0 0 0 0 0 0 0 0 0 0 0 0 0 0 0 0 0 0 0 0
0 1 1 3 3 1 1 2 2 1 2 1 1 0 0 0 0 0 0 0 0 0 0 0 0 0 0 0 0 0 0 0 0 0 0 0 0 0 0 0 0 0 0
0 1 2 4 1 0 0 1 0 1 1 1 0 0 0 0 0 0 0 0 0 0 0 0 0 0 0 0 0 0 0 0 0 0 0 0 0 0 0 0 0 0 0
0 0 2 0 0 0 0 0 0 0 1 1 0 0 0 0 0 0 0 0 0 0 0 0 0 0 0 0 0 0 0 0 0 0 0 0 0 0 0 0 0 0 0
1 0 0 0 0 1 1 0 0 0 0 0 0 0 0 0 0 0 0 0 0 0 0 0 0 0 0 0 0 0 0 0 0 0 0 0 0 0 0 0 0 0 0
1 0 0 0 0 1 0 0 0 0 0 0 0 0 0 0 0 0 0 0 0 0 0 0 0 0 0 0 0 0 0 0 0 0 0 0 0 0 0 0 0 0 0
0 0 0 0 0 0 0 0 0 0 0 0 0 0 0 0 0 0 0 0 0 0 0 0 0 0 0 0 0 0 0 0 0 0 0 0 0 0 0 0 0 0 0
0 0 0 0 0 0 0 0 0 0 0 0 0 0 0 0 0 0 0 0 0 0 0 0 0 0 0 0 0 0 0 0 0 0 0 0 0 0 0 0 0 0 0
0 0 0 0 0 0 0 0 0 0 0 0 0 0 0 0 0 0 0 0 0 0 0 0 0 0 0 0 0 0 0 0 0 0 0 0 0 0 0 0 0 0 0
0 0 0 0 0 0 0 0 0 0 0 0 0 0 0 0 0 0 0 0 0 0 0 0 0 0 0 0 0 0 0 0 0 0 0 0 0 0 0 0 0 0 0
0 0 0 0 0 0 0 0 0 0 0 0 0 0 0 0 0 0 0 0 0 0 0 0 0 0 -0 -0 0 0 -0 0 0 0 0 0 0 0 0 0 0 0 0
0 0 0 0 0 0 0 0 0 0 0 0 0 0 0 0 0 0 0 0 0 0 0 0 0 -0 -0 0 0 0 0 0 0 0 0 0 0 0 0 0 0 0 0
0 0 0 0 0 0 0 0 0 0 0 0 0 0 0 0 0 0 0 0 0 0 0 0 0 0 0 0 0 0 0 0 0 0 0 0 0 0 0 0 0 0 0
0 0 0 0 0 0 0 0 0 0 0 0 0 0 0 0 0 0 0 0 0 0 0 0 0 -0 0 0 0 0 0 0 0 0 0 0 0 0 0 0 0 0 0
0 0 0 0 0 0 0 0 0 0 0 0 0 0 0 0 0 0 0 0 0 0 0 0 0 0 0 0 0 0 0 0 0 0 0 0 0 0 0 0 0 0 0
0 0 0 0 0 0 0 0 0 0 0 0 0 0 0 0 0 0 0 0 0 0 0 0 0 0 0 0 0 0 0 0 0 0 0 0 0 0 0 0 0 0 0
0 0 0 0 0 0 0 0 0 0 0 0 0 0 0 0 0 0 0 0 0 0 0 0 0 0 0 0 0 0 0 0 0 0 0 0 0 0 0 0 0 0 0
0 0 0 0 0 0 0 0 0 0 0 0 0 0 0 0 0 0 0 0 0 0 0 0 0 0 0 0 0 0 0 0 0 0 0 0 0 0 0 0 0 0 0
-0 0 -0 -0 0 0 0 0 0 0 0 -0 0 0 0 0 0 0 0 0 0 0 0 0 0 0 0 0 0 0 0 0 0 0 0 0 0 0 0 0 0 0 0
Wind_Speed_500mb
74 68 72 72 68 70 68 65 66 69 65 62 61 54 50 44 41 37 21 22 30 30 35 34 27 18 17 20 19 22 28 30 29 30 29 22 15 18 25 22 31 23 23
65 77 80 79 76 75 74 71 72 73 73 64 65 64 56 48 41 36 29 28 29 31 27 23 18 16 16 19 22 28 28 24 24 19 20 11 12 8 23 20 21 27 27
72 74 81 80 72 75 77 74 72 71 74 67 70 67 57 48 44 40 38 38 32 26 20 13 13 17 17 14 14 16 12 10 14 16 11 11 8 26 10 17 25 29 24
57 64 77 78 71 70 66 61 60 65 71 70 71 67 65 58 50 44 35 30 22 19 17 14 12 11 7 4 1 3 6 6 7 9 10 8 12 11 21 22 24 28 24
48 52 70 68 66 64 58 54 56 63 67 65 63 61 60 56 47 41 31 25 21 17 12 9 7 6 5 1 4 5 7 9 9 8 8 9 10 11 17 30 35 31 26
43 55 57 65 63 56 53 53 58 63 65 60 62 59 60 54 50 44 36 29 23 19 16 13 10 4 1 4 6 9 11 12 12 12 13 14 13 15 16 28 37 37 31
41 51 61 70 65 61 57 53 56 59 56 52 54 55 53 50 46 43 38 33 25 28 23 16 10 6 0 5 8 9 11 13 13 13 13 15 17 19 22 28 35 37 40
44 52 63 60 64 65 61 60 62 61 56 49 50 47 43 41 43 39 34 33 32 30 24 18 13 6 1 5 9 13 14 15 17 18 20 22 25 26 27 25 34 43 34
49 59 46 46 68 75 72 67 66 59 54 50 48 42 41 38 40 39 35 36 34 31 28 21 12 6 1 7 12 16 17 19 20 21 23 25 30 31 32 32 27 25 28
38 38 40 52 78 78 71 64 59 51 49 47 44 43 46 46 46 43 42 37 36 34 28 19 12 5 3 10 15 17 19 21 24 27 28 29 33 36 37 37 32 27 29
34 32 37 61 66 63 69 66 61 56 54 52 54 55 55 52 44 42 42 44 44 35 25 18 11 8 8 11 14 19 23 27 30 34 37 37 41 42 41 40 34 28 28
28 21 39 50 52 61 74 66 63 63 59 59 59 60 59 54 45 43 43 42 38 32 22 16 15 14 15 15 18 21 26 30 36 40 43 42 42 43 42 37 35 31 31
25 28 35 44 52 68 74 71 70 65 65 66 67 65 58 48 48 45 47 44 37 28 25 22 19 18 18 20 21 23 27 33 37 40 43 44 42 41 38 35 30 29 29
40 34 38 42 48 50 57 70 69 68 68 66 66 62 47 40 44 49 50 47 38 32 29 26 21 22 19 19 23 28 34 35 37 40 41 42 39 35 31 26 24 25 28
41 44 40 48 56 50 55 57 61 64 66 61 56 52 45 44 51 53 52 49 38 35 31 27 26 24 21 26 31 37 39 39 39 41 41 37 36 31 28 26 27 26 25
46 39 50 50 53 46 54 55 56 59 62 64 56 59 48 52 54 51 51 45 42 38 34 31 26 23 27 35 38 40 41 40 39 36 34 32 31 26 25 26 25 28 26
52 51 33 46 48 48 47 52 58 55 56 49 55 56 55 55 54 53 49 44 41 37 31 24 25 30 34 39 43 43 38 34 30 29 30 28 22 30 23 27 33 31 33
51 54 42 36 51 54 47 57 58 56 52 54 55 51 56 57 62 61 56 47 40 35 27 22 26 36 35 36 38 36 30 27 32 29 25 27 27 29 30 29 30 30 29
40 42 34 35 47 54 66 58 61 57 55 57 55 51 54 59 57 51 44 29 17 25 25 26 28 34 38 39 31 28 24 29 27 30 27 30 30 32 32 37 36 34 30
3 9 23 35 46 50 60 61 59 57 54 47 44 42 46 47 43 36 10 14 18 26 31 25 28 35 41 37 27 28 25 30 31 31 29 33 31 37 36 38 40 39 34
36 47 51 57 56 53 58 61 57 56 54 48 45 42 38 33 26 13 15 18 28 34 34 35 36 39 37 36 33 35 29 30 33 35 33 32 38 38 42 44 43 42 47
62 70 80 82 72 72 76 80 71 58 50 43 37 28 21 10 5 8 17 22 25 30 36 39 37 39 35 32 39 42 43 45 40 37 37 35 44 46 46 50 54 55 58
74 72 87 85 79 73 70 67 54 44 33 36 30 18 8 1 7 22 20 19 21 24 29 29 28 25 23 24 29 36 40 41 41 37 43 53 53 53 55 58 57 56 50
65 66 78 79 78 70 66 56 47 36 33 35 26 15 7 7 4 8 15 16 16 20 23 24 26 32 32 34 41 43 47 43 44 50 55 61 59 62 65 64 59 49 45
56 61 68 77 68 67 60 57 44 41 39 38 31 20 16 21 18 12 11 11 12 18 21 24 29 31 35 31 43 46 45 45 47 54 57 57 51 51 54 53 52 42 35
51 54 59 65 65 64 67 58 50 44 43 37 34 20 24 22 16 13 10 18 17 17 22 27 31 33 35 34 32 38 40 39 43 47 47 50 45 40 40 37 37 35 33
Wind_Direction_500mb
233 233 239 241 240 244 241 237 233 233 228 223 218 220 223 229 242 259 272 263 264 274 280 282 291 288 283 304 299 312 318 314 309 315 319 316 308 284 287 297 309 321 331
226 232 237 239 239 243 245 242 238 233 228 225 223 223 226 227 241 248 271 274 273 271 266 274 278 283 294 300 306 317 307 309 320 331 337 333 332 286 307 327 325 329 332
235 231 234 235 233 236 243 243 241 232 224 224 221 221 223 224 228 235 242 247 249 253 239 233 258 258 261 261 274 287 288 315 327 338 357 330 324 327 304 329 332 340 335
232 236 237 236 237 241 243 239 233 226 219 223 222 223 225 222 228 233 233 228 227 216 220 228 241 227 215 215 284 329 319 325 332 340 348 344 321 328 319 326 326 345 350
225 233 237 243 239 239 235 229 221 217 217 217 222 224 223 223 229 222 212 206 206 203 199 198 179 160 136 44 355 352 343 338 330 320 317 313 313 306 308 311 322 333 338
232 236 238 239 234 228 223 217 215 215 214 217 221 222 221 223 226 209 205 204 201 202 189 196 182 163 70 19 2 350 339 327 324 322 321 314 313 313 322 311 317 318 328
236 233 232 233 224 216 210 205 207 211 215 216 219 219 221 226 225 218 209 209 209 193 183 181 179 171 210 332 341 349 349 341 339 328 320 321 311 313 311 312 314 314 321
243 237 237 224 218 211 204 204 204 207 218 222 219 209 211 217 212 205 210 201 201 190 183 180 178 185 278 7 4 0 353 348 344 337 330 323 314 313 311 312 315 316 312
243 241 230 214 223 212 206 206 207 211 210 203 202 203 210 208 207 203 200 195 189 187 179 179 180 181 88 0 359 354 348 341 333 324 323 320 315 312 309 307 303 295 307
275 248 219 212 227 219 207 206 204 206 194 197 199 202 195 197 198 198 191 187 188 185 183 185 184 208 339 347 346 344 342 336 331 325 324 320 313 312 310 306 300 289 282
289 243 217 222 223 220 208 203 200 194 190 184 184 187 187 187 189 195 191 190 182 193 193 196 205 245 288 309 326 336 338 333 329 323 319 316 313 312 311 309 304 298 286
313 244 227 227 213 213 204 200 193 185 181 182 183 184 185 182 185 197 195 193 191 195 204 215 233 251 276 296 306 316 326 329 326 321 316 315 314 315 315 314 309 302 296
303 257 244 226 222 207 196 191 182 180 184 184 182 181 180 190 190 192 195 199 203 206 220 230 239 253 269 283 297 314 321 320 317 314 309 309 309 311 310 311 315 313 306
295 269 258 244 221 199 189 185 186 190 186 185 183 183 187 189 200 191 199 203 205 215 224 232 240 252 264 286 306 315 318 315 313 309 306 306 308 308 306 309 310 311 310
293 273 257 248 224 199 190 190 191 190 191 187 185 197 195 195 196 196 198 202 208 218 226 238 247 260 287 304 305 307 309 310 308 302 300 299 299 298 296 294 293 302 307
314 285 263 245 217 202 199 197 193 195 193 192 198 201 204 196 198 200 207 208 211 219 230 243 258 280 295 296 303 308 308 310 307 303 299 297 297 288 275 266 272 287 308
304 297 277 244 218 208 204 201 201 199 200 202 207 210 201 198 200 203 207 211 214 221 230 249 276 289 299 306 310 309 307 305 301 301 297 289 284 296 293 275 264 265 268
296 298 276 251 228 214 207 213 205 201 204 206 207 208 205 200 198 200 204 203 201 204 216 248 284 298 306 307 307 300 298 292 296 294 285 283 289 286 291 297 302 293 283
286 290 272 234 218 204 208 208 206 206 210 207 209 209 204 203 198 197 190 186 232 256 261 280 298 302 310 311 303 291 285 286 287 289 282 281 288 286 290 297 300 300 298
299 180 177 177 178 173 185 196 184 191 189 185 188 180 176 168 160 151 189 193 243 273 276 287 301 302 306 304 302 286 290 285 289 287 285 286 285 282 284 287 289 292 295
91 110 123 124 115 130 152 147 142 128 123 127 131 133 140 143 155 171 194 229 243 269 293 297 304 301 295 292 287 278 285 287 287 285 287 283 279 280 285 289 283 286 293
71 91 98 103 109 110 111 108 105 111 117 117 116 122 130 147 268 259 268 275 290 301 302 298 291 287 287 294 287 284 279 279 283 291 287 285 279 282 283 279 285 290 291
64 70 86 92 90 89 89 83 78 79 88 95 93 90 92 132 289 314 304 304 295 293 294 299 295 296 301 297 295 292 289 281 279 284 284 285 287 285 281 279 279 277 275
53 68 78 76 77 74 73 74 67 65 60 62 57 55 47 98 35 297 297 287 292 293 291 296 295 298 300 303 301 300 300 299 297 294 292 288 287 283 280 276 274 271 270
57 60 68 73 75 78 79 73 68 66 64 66 60 34 37 51 34 12 317 313 309 304 300 303 309 307 307 307 304 309 307 310 308 303 301 297 297 295 281 271 271 267 266
61 70 72 73 70 72 71 68 63 61 61 53 59 42 36 37 16 2 353 342 350 343 333 322 312 304 308 312 312 308 312 318 313 306 303 305 304 294 284 274 272 269 265
Wind_Speed_850mb
74 68 72 72 68 70 68 65 66 69 65 62 61 54 50 44 41 37 21 22 30 30 35 34 27 18 17 20 19 22 28 30 29 30 29 22 15 18 25 22 31 23 23
65 77 80 79 76 75 74 71 72 73 73 64 65 64 56 48 41 36 29 28 29 31 27 23 18 16 16 19 22 28 28 24 24 19 20 11 12 8 23 20 21 27 27
72 74 81 80 72 75 77 74 72 71 74 67 70 67 57 48 44 40 38 38 32 26 20 13 13 17 17 14 14 16 12 10 14 16 11 11 8 26 10 17 25 29 24
57 64 77 78 71 70 66 61 60 65 71 70 71 67 65 58 50 44 35 30 22 19 17 14 12 11 7 4 1 3 6 6 7 9 10 8 12 11 21 22 24 28 24
48 52 70 68 66 64 58 54 56 63 67 65 63 61 60 56 47 41 31 25 21 17 12 9 7 6 5 1 4 5 7 9 9 8 8 9 10 11 17 30 35 31 26
43 55 57 65 63 56 53 53 58 63 65 60 62 59 60 54 50 44 36 29 23 19 16 13 10 4 1 4 6 9 11 12 12 12 13 14 13 15 16 28 37 37 31
41 51 61 70 65 61 57 53 56 59 56 52 54 55 53 50 46 43 38 33 25 28 23 16 10 6 0 5 8 9 11 13 13 13 13 15 17 19 22 28 35 37 40
44 52 63 60 64 65 61 60 62 61 56 49 50 47 43 41 43 39 34 33 32 30 24 18 13 6 1 5 9 13 14 15 17 18 20 22 25 26 27 25 34 43 34
49 59 46 46 68 75 72 67 66 59 54 50 48 42 41 38 40 39 35 36 34 31 28 21 12 6 1 7 12 16 17 19 20 21 23 25 30 31 32 32 27 25 28
38 38 40 52 78 78 71 64 59 51 49 47 44 43 46 46 46 43 42 37 36 34 28 19 12 5 3 10 15 17 19 21 24 27 28 29 33 36 37 37 32 27 29
34 32 37 61 66 63 69 66 61 56 54 52 54 55 55 52 44 42 42 44 44 35 25 18 11 8 8 11 14 19 23 27 30 34 37 37 41 42 41 40 34 28 28
28 21 39 50 52 61 74 66 63 63 59 59 59 60 59 54 45 43 43 42 38 32 22 16 15 14 15 15 18 21 26 30 36 40 43 42 42 43 42 37 35 31 31
25 28 35 44 52 68 74 71 70 65 65 66 67 65 58 48 48 45 47 44 37 28 25 22 19 18 18 20 21 23 27 33 37 40 43 44 42 41 38 35 30 29 29
40 34 38 42 48 50 57 70 69 68 68 66 66 62 47 40 44 49 50 47 38 32 29 26 21 22 19 19 23 28 34 35 37 40 41 42 39 35 31 26 24 25 28
41 44 40 48 56 50 55 57 61 64 66 61 56 52 45 44 51 53 52 49 38 35 31 27 26 24 21 26 31 37 39 39 39 41 41 37 36 31 28 26 27 26 25
46 39 50 50 53 46 54 55 56 59 62 64 56 59 48 52 54 51 51 45 42 38 34 31 26 23 27 35 38 40 41 40 39 36 34 32 31 26 25 26 25 28 26
52 51 33 46 48 48 47 52 58 55 56 49 55 56 55 55 54 53 49 44 41 37 31 24 25 30 34 39 43 43 38 34 30 29 30 28 22 30 23 27 33 31 33
51 54 42 36 51 54 47 57 58 56 52 54 55 51 56 57 62 61 56 47 40 35 27 22 26 36 35 36 38 36 30 27 32 29 25 27 27 29 30 29 30 30 29
40 42 34 35 47 54 66 58 61 57 55 57 55 51 54 59 57 51 44 29 17 25 25 26 28 34 38 39 31 28 24 29 27 30 27 30 30 32 32 37 36 34 30
3 9 23 35 46 50 60 61 59 57 54 47 44 42 46 47 43 36 10 14 18 26 31 25 28 35 41 37 27 28 25 30 31 31 29 33 31 37 36 38 40 39 34
36 47 51 57 56 53 58 61 57 56 54 48 45 42 38 33 26 13 15 18 28 34 34 35 36 39 37 36 33 35 29 30 33 35 33 32 38 38 42 44 43 42 47
62 70 80 82 72 72 76 80 71 58 50 43 37 28 21 10 5 8 17 22 25 30 36 39 37 39 35 32 39 42 43 45 40 37 37 35 44 46 46 50 54 55 58
74 72 87 85 79 73 70 67 54 44 33 36 30 18 8 1 7 22 20 19 21 24 29 29 28 25 23 24 29 36 40 41 41 37 43 53 53 53 55 58 57 56 50
65 66 78 79 78 70 66 56 47 36 33 35 26 15 7 7 4 8 15 16 16 20 23 24 26 32 32 34 41 43 47 43 44 50 55 61 59 62 65 64 59 49 45
56 61 68 77 68 67 60 57 44 41 39 38 31 20 16 21 18 12 11 11 12 18 21 24 29 31 35 31 43 46 45 45 47 54 57 57 51 51 54 53 52 42 35
51 54 59 65 65 64 67 58 50 44 43 37 34 20 24 22 16 13 10 18 17 17 22 27 31 33 35 34 32 38 40 39 43 47 47 50 45 40 40 37 37 35 33
Wind_Direction_850mb
233 233 239 241 240 244 241 237 233 233 228 223 218 220 223 229 242 259 272 263 264 274 280 282 291 288 283 304 299 312 318 314 309 315 319 316 308 284 287 297 309 321 331
226 232 237 239 239 243 245 242 238 233 228 225 223 223 226 227 241 248 271 274 273 271 266 274 278 283 294 300 306 317 307 309 320 331 337 333 332 286 307 327 325 329 332
235 231 234 235 233 236 243 243 241 232 224 224 221 221 223 224 228 235 242 247 249 253 239 233 258 258 261 261 274 287 288 315 327 338 357 330 324 327 304 329 332 340 335
232 236 237 236 237 241 243 239 233 226 219 223 222 223 225 222 228 233 233 228 227 216 220 228 241 227 215 215 284 329 319 325 332 340 348 344 321 328 319 326 326 345 350
225 233 237 243 239 239 235 229 221 217 217 217 222 224 223 223 229 222 212 206 206 203 199 198 179 160 136 44 355 352 343 338 330 320 317 313 313 306 308 311 322 333 338
232 236 238 239 234 228 223 217 215 215 214 217 221 222 221 223 226 209 205 204 201 202 189 196 182 163 70 19 2 350 339 327 324 322 321 314 313 313 322 311 317 318 328
236 233 232 233 224 216 210 205 207 211 215 216 219 219 221 226 225 218 209 209 209 193 183 181 179 171 210 332 341 349 349 341 339 328 320 321 311 313 311 312 314 314 321
243 237 237 224 218 211 204 204 204 207 218 222 219 209 211 217 212 205 210 201 201 190 183 180 178 185 278 7 4 0 353 348 344 337 330 323 314 313 311 312 315 316 312
243 241 230 214 223 212 206 206 207 211 210 203 202 203 210 208 207 203 200 195 189 187 179 179 180 181 88 0 359 354 348 341 333 324 323 320 315 312 309 307 303 295 307
275 248 219 212 227 219 207 206 204 206 194 197 199 202 195 197 198 198 191 187 188 185 183 185 184 208 339 347 346 344 342 336 331 325 324 320 313 312 310 306 300 289 282
289 243 217 222 223 220 208 203 200 194 190 184 184 187 187 187 189 195 191 190 182 193 193 196 205 245 288 309 326 336 338 333 329 323 319 316 313 312 311 309 304 298 286
313 244 227 227 213 213 204 200 193 185 181 182 183 184 185 182 185 197 195 193 191 195 204 215 233 251 276 296 306 316 326 329 326 321 316 315 314 315 315 314 309 302 296
303 257 244 226 222 207 196 191 182 180 184 184 182 181 180 190 190 192 195 199 203 206 220 230 239 253 269 283 297 314 321 320 317 314 309 309 309 311 310 311 315 313 306
295 269 258 244 221 199 189 185 186 190 186 185 183 183 187 189 200 191 199 203 205 215 224 232 240 252 264 286 306 315 318 315 313 309 306 306 308 308 306 309 310 311 310
293 273 257 248 224 199 190 190 191 190 191 187 185 197 195 195 196 196 198 202 208 218 226 238 247 260 287 304 305 307 309 310 308 302 300 299 299 298 296 294 293 302 307
314 285 263 245 217 202 199 197 193 195 193 192 198 201 204 196 198 200 207 208 211 219 230 243 258 280 295 296 303 308 308 310 307 303 299 297 297 288 275 266 272 287 308
304 297 277 244 218 208 204 201 201 199 200 202 207 210 201 198 200 203 207 211 214 221 230 249 276 289 299 306 310 309 307 305 301 301 297 289 284 296 293 275 264 265 268
296 298 276 251 228 214 207 213 205 201 204 206 207 208 205 200 198 200 204 203 201 204 216 248 284 298 306 307 307 300 298 292 296 294 285 283 289 286 291 297 302 293 283
286 290 272 234 218 204 208 208 206 206 210 207 209 209 204 203 198 197 190 186 232 256 261 280 298 302 310 311 303 291 285 286 287 289 282 281 288 286 290 297 300 300 298
299 180 177 177 178 173 185 196 184 191 189 185 188 180 176 168 160 151 189 193 243 273 276 287 301 302 306 304 302 286 290 285 289 287 285 286 285 282 284 287 289 292 295
91 110 123 124 115 130 152 147 142 128 123 127 131 133 140 143 155 171 194 229 243 269 293 297 304 301 295 292 287 278 285 287 287 285 287 283 279 280 285 289 283 286 293
71 91 98 103 109 110 111 108 105 111 117 117 116 122 130 147 268 259 268 275 290 301 302 298 291 287 287 294 287 284 279 279 283 291 287 285 279 282 283 279 285 290 291
64 70 86 92 90 89 89 83 78 79 88 95 93 90 92 132 289 314 304 304 295 293 294 299 295 296 301 297 295 292 289 281 279 284 284 285 287 285 281 279 279 277 275
53 68 78 76 77 74 73 74 67 65 60 62 57 55 47 98 35 297 297 287 292 293 291 296 295 298 300 303 301 300 300 299 297 294 292 288 287 283 280 276 274 271 270
57 60 68 73 75 78 79 73 68 66 64 66 60 34 37 51 34 12 317 313 309 304 300 303 309 307 307 307 304 309 307 310 308 303 301 297 297 295 281 271 271 267 266
61 70 72 73 70 72 71 68 63 61 61 53 59 42 36 37 16 2 353 342 350 343 333 322 312 304 308 312 312 308 312 318 313 306 303 305 304 294 284 274 272 269 265